#timestamp,LO_Frequency,Hit 
1501099215.6,286047040.6,N
1501099235.4,286047035.2,N
1501099255.2,286047029.2,N
1501099275.0,286047029.9,N
1501099276.0,286047029.9,N
1501099295.8,286047029.2,N
1501099315.6,286047022.3,N
1501099335.4,286047017.4,N
1501099355.3,286047017.3,N
1501099375.1,286047019.1,N
1501099395.8,286047016.7,N
1501099415.7,286047016.0,N
1501099435.5,286047020.3,N
1501099455.3,286047025.6,N
1501099475.2,286047029.1,N
1501099495.9,286047028.0,N
1501099515.7,286047028.8,N
1501099535.6,286047024.1,N
1501099555.4,286047023.2,N
1501099575.2,286047017.3,N
1501099595.0,286047019.7,N
1501099595.9,286047019.7,N
1501099615.8,286047024.9,N
1501099635.6,286047024.4,N
1501099655.4,286047026.5,N
1501099675.3,286047033.5,N
1501099695.1,286047038.5,N
1501099715.8,286047046.0,Y
1501099735.8,286047034.6,N
1501099755.7,286047028.9,N
1501099775.5,286047020.8,N
1501099795.3,286047020.6,N
1501099815.1,286047029.6,N
1501099835.9,286047033.7,N
1501099855.7,286047034.1,N
1501099875.5,286047035.2,N
1501099895.4,286047033.7,N
1501099915.2,286047031.9,N
1501099935.0,286047036.1,N
1501099935.9,286047036.1,N
1501099955.8,286047036.4,N
1501099975.6,286047034.4,N
1501099995.4,286047033.3,N
1501100015.3,286047033.5,N
1501100035.1,286047031.2,N
1501100036.0,286047031.2,N
1501100055.8,286047038.6,N
1501100075.6,286047041.6,N
1501100095.5,286047044.3,N
1501100115.3,286047045.0,N
1501100135.1,286047044.5,N
1501100155.9,286047043.7,N
1501100175.7,286047046.2,N
1501100195.5,286047047.8,N
1501100215.4,286047049.0,Y
1501100235.2,286047040.1,N
1501100255.0,286047044.4,N
1501100255.9,286047044.4,N
1501100275.8,286047042.6,N
1501100295.6,286047031.9,N
1501100315.4,286047026.0,N
1501100335.3,286047023.8,N
1501100355.1,286047026.6,N
1501100356.0,286047026.6,N
1501100375.8,286047030.6,N
1501100395.7,286047038.9,N
1501100415.5,286047042.5,N
1501100435.3,286047042.8,N
1501100455.1,286047038.3,N
1501100475.9,286047035.7,N
1501100495.7,286047033.2,N
1501100515.5,286047035.2,N
1501100535.4,286047043.4,N
1501100555.2,286047047.7,N
1501100575.0,286047042.9,N
1501100575.9,286047042.9,N
1501100595.8,286047043.4,N
1501100615.6,286047043.2,N
1501100635.4,286047039.6,N
1501100655.3,286047043.7,N
1501100675.1,286047049.0,N
1501100676.0,286047049.0,N
1501100695.8,286047057.0,Y
1501100715.7,286047053.3,Y
1501100735.5,286047043.6,N
1501100755.3,286047039.9,N
1501100775.2,286047033.3,N
1501100795.9,286047025.3,N
1501100815.7,286047019.0,N
1501100835.6,286047017.1,N
1501100855.4,286047015.3,N
1501100875.2,286047006.3,N
1501100895.0,286047000.5,N
1501100895.9,286047000.5,N
1501100915.8,286047002.5,N
1501100935.6,286047009.7,N
1501100955.4,286047010.9,N
1501100975.3,286047011.1,N
1501100995.1,286047010.8,N
1501101015.8,286047008.5,N
1501101035.7,286047011.7,N
1501101055.5,286047009.3,N
1501101075.3,286047009.8,N
1501101095.2,286047015.6,N
1501101115.9,286047015.3,N
1501101135.7,286047013.9,N
1501101155.5,286047012.2,N
1501101175.4,286047018.6,N
1501101195.2,286047015.3,N
1501101215.0,286047018.2,N
1501101215.9,286047018.2,N
1501101235.8,286047016.0,N
1501101255.6,286047010.6,N
1501101275.4,286047012.2,N
1501101295.3,286047005.0,N
1501101315.1,286047003.8,N
1501101316.0,286047003.8,N
1501101335.8,286047005.9,N
1501101355.7,286047002.7,N
1501101375.5,286046999.0,N
1501101395.3,286046998.2,N
1501101415.1,286047007.2,N
1501101435.9,286047010.4,N
1501101455.7,286047014.5,N
1501101475.5,286047007.4,N
1501101495.4,286047006.6,N
1501101515.2,286047003.0,N
1501101535.0,286047001.6,N
1501101535.9,286047001.6,N
1501101555.8,286047003.3,N
1501101575.6,286047004.6,N
1501101595.4,286047007.5,N
1501101615.2,286047008.1,N
1501101635.1,286047012.2,N
1501101636.0,286047012.2,N
1501101655.8,286047008.4,N
1501101675.6,286047008.8,N
1501101695.5,286047008.0,N
1501101715.3,286047010.3,N
1501101735.1,286047011.3,N
1501101755.9,286047009.7,N
1501101775.7,286047011.1,N
1501101795.5,286047012.7,N
1501101815.4,286047015.5,N
1501101835.2,286047022.0,N
1501101855.0,286047023.1,N
1501101855.9,286047023.1,N
1501101875.8,286047020.7,N
1501101895.6,286047018.9,N
1501101915.4,286047022.5,N
1501101935.2,286047030.2,N
1501101955.1,286047037.5,N
1501101956.0,286047037.5,N
1501101975.8,286047038.4,N
1501101995.6,286047035.2,N
1501102015.5,286047035.6,N
1501102035.3,286047034.1,N
1501102055.1,286047029.5,N
1501102075.9,286047032.8,N
1501102095.7,286047032.8,N
1501102115.5,286047029.2,N
1501102135.4,286047020.7,N
1501102155.2,286047018.8,N
1501102175.0,286047019.1,N
1501102175.9,286047019.1,N
1501102195.7,286047021.8,N
1501102215.6,286047028.2,N
1501102235.4,286047027.1,N
1501102255.2,286047028.8,N
1501102275.1,286047032.9,N
1501102276.0,286047032.9,N
1501102295.8,286047031.0,N
1501102315.6,286047028.2,N
1501102335.5,286047019.0,N
1501102355.3,286047011.3,N
1501102375.1,286047008.9,N
1501102395.9,286047007.7,N
1501102415.7,286047005.0,N
1501102435.5,286047003.1,N
1501102455.3,286047007.3,N
1501102475.2,286047005.8,N
1501102495.0,286047002.0,N
1501102495.9,286047002.0,N
1501102515.7,286046999.9,N
1501102535.6,286046997.0,N
1501102555.4,286046995.9,N
1501102575.2,286046997.7,N
1501102595.1,286046995.4,N
1501102596.0,286046995.4,N
1501102615.8,286046995.9,N
1501102635.6,286046992.2,N
1501102655.5,286046990.8,N
1501102675.3,286046999.7,N
1501102695.1,286047008.6,N
1501102715.9,286047015.3,N
1501102735.7,286047013.2,N
1501102755.5,286047012.0,N
1501102775.3,286047015.8,N
1501102795.2,286047020.5,N
